CDT,Max TemperatureF,Mean TemperatureF,Min TemperatureF,Max Dew PointF,MeanDew PointF,Min DewpointF,Max Humidity, Mean Humidity, Min Humidity, Max Sea Level PressureIn, Mean Sea Level PressureIn, Min Sea Level PressureIn, Max VisibilityMiles, Mean VisibilityMiles, Min VisibilityMiles, Max Wind SpeedMPH, Mean Wind SpeedMPH, Max Gust SpeedMPH,PrecipitationIn, CloudCover, Events, WindDirDegrees
2013-7-1,87,74,61,57,53,45,77,62,25,30.08,30.02,29.98,10,10,10,14,6,21,0.00,1,,351
2013-7-2,90,73,57,55,50,41,80,60,20,30.12,30.08,30.05,10,10,10,10,2,16,0.00,0,,347
2013-7-3,96,74,56,61,52,41,88,65,16,30.09,30.04,29.97,10,9,2,6,0,,0.00,0,,140
2013-7-4,96,78,60,61,54,45,81,57,18,30.03,29.98,29.91,10,10,10,8,2,,0.00,0,,111
2013-7-5,96,80,65,64,59,52,82,59,23,30.01,29.96,29.88,10,10,7,10,4,,0.00,0,Rain-Thunderstorm,121
2013-7-6,97,80,65,63,59,57,79,60,30,29.96,29.94,29.93,10,10,10,9,4,17,0.00,0,,123
2013-7-7,98,78,69,64,61,60,78,64,46,30.01,29.97,29.95,10,10,10,6,4,,0.00,0,,113
2013-7-8,98,84,72,70,65,61,76,61,32,30.09,30.03,29.99,10,10,10,9,4,,0.00,0,,129
2013-7-9,100,86,73,67,64,59,70,59,25,30.09,30.05,29.96,10,10,10,14,4,17,0.00,0,,173
2013-7-10,106,88,70,70,62,57,80,59,20,30.04,29.99,29.90,10,10,10,13,2,16,0.00,0,,189
2013-7-11,110,92,74,70,64,50,80,59,14,29.97,29.94,29.86,10,10,7,10,1,,0.00,0,,114
2013-7-12,102,86,72,68,66,59,84,62,25,30.00,29.95,29.92,10,10,10,10,2,16,0.00,0,,114
2013-7-13,102,87,74,67,64,55,75,59,24,30.02,29.97,29.93,10,10,10,13,5,,0.00,0,,117
2013-7-14,79,72,64,68,62,58,88,68,50,30.04,29.97,29.91,10,9,4,9,4,,0.08,4,Rain-Thunderstorm,105
2013-7-15,77,69,63,68,63,60,90,87,73,30.14,30.04,30.00,10,8,2,10,2,,0.69,7,Rain-Thunderstorm,33
2013-7-16,92,80,69,72,67,64,89,79,43,30.21,30.15,30.12,10,9,5,9,4,,0.08,4,Rain-Thunderstorm,103
2013-7-17,94,83,71,71,68,64,86,73,36,30.26,30.21,30.17,10,10,7,12,3,17,0.00,2,Thunderstorm,100
2013-7-18,99,84,69,72,66,57,88,72,25,30.20,30.16,30.03,10,7,0,6,1,,0.00,1,Fog,138
2013-7-19,100,86,71,72,67,59,88,73,25,30.06,30.02,29.93,10,9,5,14,1,20,0.00,0,,201
2013-7-20,100,85,70,68,67,59,88,75,25,29.99,29.96,29.87,10,9,4,7,2,,0.00,0,,128
2013-7-21,100,85,72,70,68,66,84,74,35,29.92,29.89,29.87,10,10,10,9,3,,0.00,0,,156
2013-7-22,99,86,75,72,69,66,78,67,35,29.94,29.90,29.86,10,10,10,15,2,20,0.00,0,,191
2013-7-23,101,88,77,72,68,66,76,64,33,29.95,29.90,29.83,10,10,10,10,2,,0.00,0,,197
2013-7-24,94,80,68,72,67,64,88,71,41,30.02,29.94,29.84,10,10,3,25,5,43,0.17,3,Rain-Thunderstorm,93
2013-7-25,93,80,69,72,67,64,88,76,41,30.09,30.02,29.99,10,8,0,7,1,,0.00,0,,117
2013-7-26,90,80,71,75,70,66,89,78,59,30.02,29.97,29.89,10,9,1,15,6,21,0.37,6,Rain-Thunderstorm,104
2013-7-27,93,80,69,68,66,63,88,76,38,30.06,30.02,29.98,10,10,10,8,4,,0.00,6,,35
2013-7-28,92,80,68,70,64,61,88,76,36,30.00,29.98,29.95,10,9,7,12,1,16,0.00,0,,129
2013-7-29,92,82,74,73,68,65,78,68,49,30.01,29.96,29.90,10,10,7,14,6,18,0.00,2,Rain,126
2013-7-30,99,86,73,72,68,61,83,65,39,30.03,30.00,29.94,10,10,7,15,6,,0.00,2,Rain,146
2013-7-31,99,86,73,73,70,67,87,71,37,30.05,30.00,29.97,10,10,5,8,1,,0.00,0,,22